Location: Peebles
(55.6412°N, 3.1714°W)
Time: 06:17:30
(UTC+01:00)

deb Agena D - Pass Details

Date: 09 July 2022
Orbit: 797 x 980 km, 99.8° (Epoch: 16 August)

Event Time Altitude Azimuth Distance (km) Brightness Sun altitude
Rises 01:44:50 0° 15° (NNE) 3,394 11.3 -11.8°
Reaches altitude 10° 01:48:48 10° 345° (NNW) 2,495 9.8 -11.7°
Maximum altitude 01:50:44 12° 325° (NW) 2,378 9.2 -11.7°
Drops below altitude 10° 01:52:41 10° 304° (NW) 2,533 9.0 -11.6°
Sets 01:56:48 0° 275° (W) 3,516 9.4 -11.5°
